Location: Cochrane
(49.0650°N, 81.0299°W)
Time: 14:56:20
(UTC-04:00)

ISS - Visible Passes

Search period start: 06 July 2020 00:00
Search period end: 16 July 2020 00:00
Orbit: 417 x 421 km, 51.6° (Epoch: 07 July)

Date Brightness Start Highest point End Pass type
(mag) Time Alt. Az. Time Alt. Az. Time Alt. Az.
06 Jul -1.8 02:02:42 18° ESE 02:02:42 18° ESE 02:04:09 10° E visible
06 Jul -3.8 03:35:37 18° WSW 03:38:01 87° SSE 03:41:23 10° ENE visible
07 Jul -3.8 02:49:29 41° SW 02:50:26 65° SSE 02:53:45 10° ENE visible
07 Jul -3.0 04:24:00 10° W 04:27:19 55° N 04:30:38 10° ENE visible
08 Jul -3.2 02:03:17 42° SE 02:03:17 42° SE 02:06:06 10° ENE visible
08 Jul -3.3 03:36:18 10° W 03:39:38 61° N 03:42:59 10° ENE visible
09 Jul -1.9 01:17:01 19° E 01:17:01 19° E 01:18:21 10° E visible
09 Jul -3.6 02:49:56 22° W 02:51:58 74° NNW 02:55:20 10° ENE visible
09 Jul -2.9 04:25:41 10° WNW 04:29:00 53° N 04:32:19 10° E visible
10 Jul -3.9 02:03:34 51° WSW 02:04:19 87° SSE 02:07:41 10° ENE visible
10 Jul -2.9 03:37:59 10° W 03:41:17 52° N 03:44:36 10° ENE visible
11 Jul -3.6 01:17:04 58° ESE 01:17:04 58° ESE 01:20:02 10° ENE visible
11 Jul -3.1 02:50:16 10° W 02:53:34 55° N 02:56:53 10° ENE visible
11 Jul -3.4 04:27:15 10° WNW 04:30:37 69° NNE 04:33:58 10° E visible
12 Jul -2.6 00:30:20 29° E 00:30:20 29° E 00:32:19 10° ENE visible
12 Jul -3.3 02:03:12 15° W 02:05:51 61° N 02:09:12 10° ENE visible
12 Jul -3.1 03:39:35 10° WNW 03:42:55 59° N 03:46:15 10° E visible
12 Jul -2.2 23:42:57 22° ESE 23:42:57 22° ESE 23:44:32 10° E visible
13 Jul -3.6 01:15:44 18° W 01:18:09 74° NNW 01:21:31 10° ENE visible
13 Jul -3.0 02:51:52 10° WNW 02:55:11 53° N 02:58:29 10° E visible
13 Jul -3.8 04:28:44 10° WNW 04:32:06 72° SSW 04:35:26 10° ESE visible
13 Jul -2.5 22:51:24 10° SSW 22:53:59 21° SE 22:56:36 10° E visible
14 Jul -3.9 00:27:05 10° WSW 00:30:27 87° SSE 00:33:49 10° ENE visible
14 Jul -2.9 02:04:07 10° W 02:07:26 52° N 02:10:44 10° ENE visible
14 Jul -3.8 03:41:02 10° WNW 03:44:25 86° NNE 03:47:47 10° ESE visible
14 Jul -2.0 22:04:40 10° S 22:06:30 14° SE 22:08:19 10° ESE visible
14 Jul -3.9 23:39:27 10° SW 23:42:47 64° SSE 23:46:07 10° ENE visible
15 Jul -3.0 01:16:21 10° W 01:19:40 55° N 01:22:59 10° ENE visible
15 Jul -3.5 02:53:20 10° WNW 02:56:42 69° NNE 03:00:03 10° E visible
15 Jul -3.2 04:30:17 10° W 04:33:23 35° SSW 04:36:28 10° SE visible
15 Jul -3.5 22:51:55 10° SW 22:55:08 44° SSE 22:58:22 10° ENE visible
